This is the latest recevied weather packets stored in our database for station/object G4ZMG. If no packets are shown the sender has not sent any weather packets the latest 1 day(s).
| Time | Temp. | Humidity | Pressure | Rain* | Wind** | Luminosity | Snow |
|---|---|---|---|---|---|---|---|
| 1777992602 | 14.44° C | 63% | 1012.3 hPa | 0 mm | 0 m/s | 749 W/m² | - |
| 1777992003 | 13.33° C | 66% | 1012.3 hPa | 0 mm | 0 m/s | 408 W/m² | - |
| 1777991404 | 13.33° C | 67% | 1012.3 hPa | 0 mm | 0 m/s | 446 W/m² | - |
| 1777990803 | 12.78° C | 69% | 1012.4 hPa | 0 mm | 0 m/s | 594 W/m² | - |
| 1777990204 | 12.78° C | 67% | 1012.4 hPa | 0 mm | 0 m/s | 257 W/m² | - |
| 1777989606 | 12.78° C | 68% | 1012.4 hPa | 0 mm | 0 m/s | 281 W/m² | - |
| 1777989002 | 12.78° C | 67% | 1012.4 hPa | 0 mm | 0 m/s | 313 W/m² | - |
| 1777988405 | 13.33° C | 60% | 1012.5 hPa | 0 mm | 0 m/s | 292 W/m² | - |
| 1777987804 | 14.44° C | 58% | 1012.5 hPa | 0 mm | 0.45 m/s, 18° | 445 W/m² | - |
| 1777987203 | 13.33° C | 60% | 1012.6 hPa | 0 mm | 0 m/s | 527 W/m² | - |
| 1777986604 | 13.33° C | 63% | 1012.6 hPa | 0 mm | 0 m/s | 417 W/m² | - |
| 1777986007 | 13.89° C | 63% | 1012.6 hPa | 0 mm | 0 m/s | 420 W/m² | - |
| 1777985403 | 13.33° C | 65% | 1012.5 hPa | 0 mm | 0 m/s | 413 W/m² | - |
| 1777984802 | 13.89° C | 64% | 1012.4 hPa | 0 mm | 0 m/s | 385 W/m² | - |
| 1777984203 | 14.44° C | 64% | 1012.5 hPa | 0 mm | 0 m/s | 844 W/m² | - |
| 1777983603 | 13.33° C | 58% | 1012.4 hPa | 0 mm | 0 m/s | 601 W/m² | - |
| 1777983015 | 13.89° C | 59% | 1012.5 hPa | 0 mm | 0 m/s | 773 W/m² | - |
| 1777982406 | 13.89° C | 58% | 1012.6 hPa | 0 mm | 0 m/s | 292 W/m² | - |
| 1777981804 | 14.44° C | 59% | 1012.6 hPa | 0 mm | 0 m/s | 383 W/m² | - |
| 1777981202 | 13.89° C | 59% | 1012.6 hPa | 0 mm | 0.45 m/s, 356° | 443 W/m² | - |
| 1777980603 | 15° C | 56% | 1012.5 hPa | 0 mm | 0 m/s | 457 W/m² | - |
* Rain latest hour (hover to see other rain measurements)
** Current wind speed in m/s (hover to see current wind gust speed)